DW4558 Weather Reports


time (UTC)temp
C
wind
direction
speed
KPH
gust
KPH
rain 1hr
cm
rain 24hr
cm
rain mn
cm
humidity
%
barometer
mb
20260504173028 9 279 20.9 30.6 0.00 0.00 0.00 73 1002.4
20260504171527 9 277 12.9 35.4 0.00 0.00 0.00 71 1002.3
20260504081504 -2 227 9.7 12.9 0.00 0.00 0.00 93 1004.2
20260504044539 -1 142 1.6 4.8 0.00 0.00 0.00 86 1004.8
20260504043036 0 298 3.2 9.7 0.00 0.00 0.00 85 1004.7
20260504041534 0 272 6.4 17.7 0.00 0.00 0.00 85 1004.9
20260504040031 0 260 6.4 9.7 0.00 0.00 0.00 85 1004.8
20260504034528 0 275 3.2 6.4 0.00 0.00 0.00 84 1004.5
20260504033025 0 259 4.8 6.4 0.00 0.00 0.00 82 1004.5
20260504031524 1 272 3.2 4.8 0.00 0.00 0.00 80 1004.6
20260504030022 1 281 3.2 4.8 0.00 0.00 0.00 78 1004.9
20260504024521 2 321 0.0 4.8 0.00 0.03 0.00 75 1005.0
20260504023022 3 313 1.6 4.8 0.00 0.03 0.00 68 1005.0
20260504021521 4 310 4.8 12.9 0.00 0.03 0.00 64 1005.1
20260504020028 5 33 3.2 17.7 0.00 0.03 0.00 63 1005.2
20260504014538 5 360 4.8 12.9 0.00 0.03 0.00 63 1005.4
20260504013020 5 338 9.7 22.5 0.00 0.03 0.00 62 1005.6
20260504011520 5 336 11.3 24.1 0.00 0.03 0.00 62 1005.6
20260504010019 5 23 19.3 30.6 0.00 0.03 0.00 62 1005.3
20260504004517 6 355 8.0 16.1 0.00 0.03 0.00 71 1005.1
20260504003016 6 33 8.0 17.7 0.00 0.03 0.00 72 1004.7
20260504001518 6 47 4.8 9.7 0.00 0.03 0.00 75 1004.6
20260504000033 6 74 6.4 12.9 0.00 0.03 0.00 74 1004.5
20260503234515 6 40 6.4 14.5 0.00 0.03 0.00 73 1004.4
20260503233019 6 57 8.0 14.5 0.00 0.03 0.00 72 1004.3
20260503231514 6 28 8.0 20.9 0.00 0.03 0.00 71 1004.2
20260503230014 6 68 8.0 25.7 0.00 0.03 0.00 71 1004.1
20260503224513 6 42 9.7 22.5 0.00 0.03 0.00 72 1004.0
20260503223013 6 57 9.7 25.7 0.00 0.03 0.00 72 1003.9
20260503221512 6 59 17.7 24.1 0.00 0.03 0.00 73 1003.8
20260503220017 6 65 11.3 25.7 0.00 0.03 0.00 75 1003.8
20260503214522 6 36 16.1 32.2 0.00 0.05 0.00 75 1003.9
20260503213010 7 63 19.3 30.6 0.00 0.05 0.00 72 1004.0
20260503211512 7 49 17.7 29.0 0.00 0.05 0.00 69 1004.0
20260503210026 8 28 19.3 29.0 0.00 0.05 0.00 64 1004.0
20260503204511 8 9 12.9 20.9 0.00 0.05 0.00 62 1004.0
20260503203014 8 19 11.3 24.1 0.00 0.05 0.00 61 1004.0
20260503201511 9 25 9.7 19.3 0.00 0.05 0.00 59 1004.0
20260503200007 9 11 11.3 20.9 0.00 0.05 0.00 59 1004.0
20260503194507 10 342 8.0 16.1 0.00 0.05 0.00 55 1004.0
20260503193006 10 13 11.3 17.7 0.00 0.05 0.00 56 1004.2
20260503191505 10 342 9.7 19.3 0.00 0.05 0.00 57 1004.0
20260503190004 10 348 16.1 22.5 0.00 0.05 0.00 62 1004.0
20260503184503 10 234 8.0 22.5 0.00 0.05 0.00 60 1004.1
20260503183001 10 19 11.3 19.3 0.00 0.05 0.00 63 1004.3
20260503181600 9 22 12.9 25.7 0.00 0.05 0.00 69 1004.5
20260503180107 8 5 12.9 22.5 0.00 0.05 0.00 67 1004.6
20260503174556 8 13 11.3 19.3 0.00 0.05 0.00 73 1004.9